Regional Weather Roundup
Issued by NWS Sterling, VA

Home | Current Version | Previous Version | Text Only | Print | Product List | Glossary Off
Versions: 1 2 3 4 5 6 7 8 9 10 11 12 13 14 15 16 17 18 19 20 21 22 23 24 25 26 27 28 29 30 31 32 33 34 35 36 37 38 39 40 41 42 43 44 45 46 47 48 49 50

000
ASUS41 KLWX 271310
RWRLWX

REGIONAL WEATHER ROUNDUP
NATIONAL WEATHER SERVICE BALTIMORE MD/WASHINGTON DC
800 AM EST MON FEB 27 2017

Note: "FAIR" indicates few or no clouds below 12,000 feet
with no significant weather and/or obstructions to visibility.
 TC=TEMPERATURE CELSIUS

 * =Non NWS site. Station does not report precipitation (e.g. rain,
    snow, etc.), thunder, or fog.

DCZ001-MDZ009-015-VAZ040>042-051-053>054-271400-
WASHINGTON METRO

CITY           SKY/WX    TMP DP  RH WIND       PRES   REMARKS
WASHINGTON NAT CLOUDY    40  35  83 SW5       30.43R
DULLES         CLOUDY    33  26  75 CALM      30.41R
ANDREWS AFB    CLOUDY    39  35  85 SW8       30.41R
FT BELVOIR     CLOUDY    34  29  83 CALM      30.42R
QUANTICO       CLOUDY    38  32  79 CALM      30.43S
COLLEGE PARK*  CLOUDY    32  27  80 CALM      30.42R
LEESBURG*      CLOUDY    32  30  93 MISG      30.41R
MANASSAS*      CLOUDY    31  27  85 CALM      30.42S
GAITHERSBURG*  CLOUDY    30  25  80 CALM      30.45R

$$

MDZ006>007-011-014-271400-
BALTIMORE METRO

CITY           SKY/WX    TMP DP  RH WIND       PRES   REMARKS
BWI AIRPORT    PTSUNNY   31  28  89 W3        30.41R
MD SCIENCE CTR   N/A     41  30  65 MISG      30.44R
MARTIN STATE   MOSUNNY   36  32  87 CALM      30.43R
ANNAPOLIS      CLOUDY    45  40  82 SE8       30.41R
FORT MEADE*    CLOUDY    28  27  93 CALM      30.45R

$$

MDZ012-015-019>023-271400-
MARYLAND EASTERN SHORE

CITY           SKY/WX    TMP DP  RH WIND       PRES   REMARKS
OCEAN CITY     SUNNY     45  37  73 VRB5      30.46R
SALISBURY      SUNNY     37  33  85 CALM      30.44R
BAY BRIDGE AP* CLOUDY    43  39  87 S12       30.42S
CAMBRIDGE*     SUNNY     39  37  93 SE6       30.43S
EASTON*        PTSUNNY   39  32  75 SE6       30.46R

$$

MDZ017>025-271400-
SOUTHERN MARYLAND

CITY           SKY/WX    TMP DP  RH WIND       PRES   REMARKS
PATUXENT RIVER PTSUNNY   42  39  89 S3        30.42R
ST INIGOES     PTSUNNY   43  37  79 S5        30.43R
LEONARDTOWN*   PTSUNNY   39  34  81 S3        30.44R

$$

MDZ003>005-271400-
NORTH CENTRAL MARYLAND

CITY           SKY/WX    TMP DP  RH WIND       PRES   REMARKS
FREDERICK*     CLOUDY    30  28  93 CALM      30.44R
HAGERSTOWN APT CLOUDY    36  18  48 SE5       30.36R
WESTMINSTER*   CLOUDY    39  32  75 CALM      30.37S

$$

MDZ501>502-271400-
WESTERN MARYLAND

CITY           SKY/WX    TMP DP  RH WIND       PRES   REMARKS
OAKLAND*       MOSUNNY   32  14  47 SW7       30.27R
CUMBERLAND*    CLOUDY    28  25  86 CALM      30.41R

$$

VAZ025>031-271400-
SHENANDOAH VALLEY

CITY           SKY/WX    TMP DP  RH WIND       PRES   REMARKS
WINCHESTER*    CLOUDY    34  18  51 SW7       30.37R
FRONT ROYAL*   CLOUDY    34  19  55 S6        30.37R
LURAY*         CLOUDY    32  25  74 S3        30.39R
NEW MARKET*    CLOUDY    36  17  46 CALM      30.38R
STAUNTON*      CLOUDY    26  22  82 CALM      30.41R
WAYNESBORO*    CLOUDY    30  19  63 CALM      30.37R

$$

WVZ021-048>050-054>055-271400-
EASTERN WEST VIRGINIA PANHANDLE

CITY           SKY/WX    TMP DP  RH WIND       PRES   REMARKS
MARTINSBURG    CLOUDY    31  20  63 CALM      30.37R
PETERSBURG*    MOSUNNY   30  25  84 CALM      30.38R

$$

VAZ036>039-050-271400-
CENTRAL FOOTHILLS

CITY           SKY/WX    TMP DP  RH WIND       PRES   REMARKS
CHARLOTTESVILL CLOUDY    33  23  66 CALM      30.40R
CULPEPER*      CLOUDY    32  28  84 CALM      30.43R
ORANGE*        CLOUDY    32  27  80 CALM      30.43R
GORDONSVILLE*  SUNNY     32  28  86 CALM      30.41R
WARRENTON*     CLOUDY    32  25  76 CALM      30.41R

$$

VAZ055>057-271400-
NORTH AND CENTRAL PIEDMONT

CITY           SKY/WX    TMP DP  RH WIND       PRES   REMARKS
FREDERICKSBRG* CLOUDY    32  31  94 CALM      30.43R
STAFFORD*      MOSUNNY   31  31 100 CALM      30.46R

$$

NCZ024-NYZ072-PAZ021-071-VAZ022-071-271400-
OTHER REGIONAL OBSERVATIONS

CITY           SKY/WX    TMP DP  RH WIND       PRES   REMARKS
NEW YORK CITY  SUNNY     36  20  52 SW7       30.42R
PHILADELPHIA   PTSUNNY   37  26  64 SW7       30.43R
PITTSBURGH     CLOUDY    36  18  48 S3        30.28R
ROANOKE        CLOUDY    35  22  58 CALM      30.40R
RICHMOND       CLOUDY    37  32  82 CALM      30.44R
RALEIGH        CLOUDY    43  25  49 SW3       30.41R

$$

ANZ530>537-271400-
MARINE OBSERVATIONS

STATION/POSITION TIME  TEMP    WIND        PRES
                       AIR SEA DIR/SP/G
                 (UTC) (F)     (DEG/KT/KT) (MB)
THOMAS PT LIGHT  1300   44 44  170/ 14/ 15   N/A
BALT KEY BRIDGE  1248   38      30/  4/  4 1030.0R
COVE POINT       1248   42     200/  9/ 11 1030.8R
LEWISETTA        1248   41 48  220/  6/  7 1030.1R
SOLOMONS ISLAND  1248   42 45  150/  2/  3   N/A
PINEY POINT      1248          190/  6/  6   N/A

$$




USA.gov is the U.S. government's official web portal to all federal, state and local government web resources and services.